Change the Weather History Date:

Friday, July 5, 2013

  Actual Average (KMSP) Record (KMSP)
Temperature  
Mean Temperature 74 °F 74 °F  
Max Temperature 86 °F 83 °F 100 °F (1982)
Min Temperature 64 °F 64 °F 45 °F (1972)
Degree Days  
Heating Degree Days 0 0  
Month to date heating degree days 0  
Since 1 June heating degree days 44  
Since 1 July heating degree days 0  
Cooling Degree Days 10 9  
Month to date cooling degree days 43  
Year to date cooling degree days 243  
Since 1 June cooling degree days 201  
Growing Degree Days 24 (Base 50)    
Moisture  
Dew Point 58 °F    
Average Humidity 55    
Maximum Humidity 74    
Minimum Humidity 38    
Precipitation  
Precipitation 0.01 in 0.13 in 1.62 in (1994)
Month to date precipitation 0.64  
Year to date precipitation 14.47  
Snow  
Snow 0.00 in 0.00 in 0.00 in ()
Month to date snowfall 0.0  
Since 1 June snowfall 0.0  
Since 1 July snowfall 0.0  
Snow Depth -    
Sea Level Pressure  
Sea Level Pressure 29.90 in    
Wind  
Wind Speed 11 mph (South)    
Max Wind Speed 20 mph    
Max Gust Speed 30 mph    
Visibility 10 miles    
Events Rain    
T = Trace of Precipitation, MM = Missing Value Source: NWS Daily Summary

Daily Weather History Graph

Daily Weather History Graph

Search for Another Location

Airport or City:

Trip Planner

Search our weather history database for the weather conditions in past years. The results will help you decide how hot, cold, wet, or windy it might be!

Date:

Astronomy

Jul. 05, 2013 Rise Set
Actual Time 5:29 AM CDT 8:59 PM CDT
Civil Twilight 4:52 AM CDT 9:36 PM CDT
Nautical Twilight 4:03 AM CDT 10:25 PM CDT
Astronomical Twilight 2:59 AM CDT 11:28 PM CDT
Moon 3:31 AM CDT (7/5) 6:52 PM CDT (7/5)
Length of Visible Light 16h 44m
Length of Day
15h 30m
Waning Crescent, 6% of the Moon is Illuminated
Jul 5
Waning Crescent
Jul 8
New
Jul 15
First Quarter
Jul 22
Full
Jul 29
Last Quarter

Hourly Weather History & Observations

Time (CDT) Temp. Heat Index Dew Point Humidity Pressure Visibility Wind Dir Wind Speed Gust Speed Precip Events Conditions
12:15 AM 71.1 °F - 57.4 °F 62% 29.93 in 10.0 mi South 9.2 mph - N/A   Clear
12:35 AM 71.1 °F - 57.2 °F 61% 29.93 in 10.0 mi South 9.2 mph - N/A   Clear
12:55 AM 70.7 °F - 57.2 °F 62% 29.93 in 10.0 mi South 9.2 mph - N/A   Clear
1:15 AM 70.3 °F - 56.8 °F 62% 29.94 in 10.0 mi South 10.4 mph - N/A   Clear
1:35 AM 69.6 °F - 56.8 °F 64% 29.94 in 10.0 mi South 9.2 mph - N/A   Clear
1:55 AM 69.8 °F - 56.5 °F 63% 29.94 in 10.0 mi South 9.2 mph - N/A   Clear
2:15 AM 69.4 °F - 56.5 °F 63% 29.94 in 10.0 mi South 9.2 mph - N/A   Clear
2:35 AM 69.8 °F - 56.5 °F 63% 29.94 in 10.0 mi South 9.2 mph - N/A   Clear
2:55 AM 68.9 °F - 56.7 °F 65% 29.94 in 10.0 mi South 9.2 mph - N/A   Clear
3:15 AM 68.5 °F - 56.5 °F 65% 29.94 in 10.0 mi South 9.2 mph - N/A   Clear
3:35 AM 67.3 °F - 56.7 °F 69% 29.94 in 10.0 mi South 8.1 mph - N/A   Clear
3:55 AM 67.1 °F - 56.7 °F 69% 29.94 in 10.0 mi South 6.9 mph - N/A   Clear
4:15 AM 66.4 °F - 56.7 °F 71% 29.94 in 10.0 mi SSE 6.9 mph - N/A   Clear
4:35 AM 66.2 °F - 56.5 °F 71% 29.94 in 10.0 mi South 6.9 mph - N/A   Clear
4:55 AM 65.3 °F - 56.3 °F 73% 29.94 in 10.0 mi South 8.1 mph - N/A   Clear
5:15 AM 65.3 °F - 56.3 °F 73% 29.94 in 10.0 mi South 8.1 mph - N/A   Clear
5:35 AM 65.3 °F - 56.3 °F 73% 29.94 in 10.0 mi South 8.1 mph - N/A   Clear
5:55 AM 64.9 °F - 56.3 °F 74% 29.94 in 10.0 mi South 8.1 mph - N/A   Clear
6:15 AM 65.7 °F - 56.3 °F 72% 29.94 in 10.0 mi SSE 6.9 mph - N/A   Clear
6:35 AM 66.6 °F - 56.5 °F 70% 29.94 in 10.0 mi SSE 8.1 mph - N/A   Clear
6:55 AM 68.0 °F - 56.7 °F 67% 29.94 in 10.0 mi South 9.2 mph - N/A   Clear
7:15 AM 69.4 °F - 56.8 °F 64% 29.94 in 10.0 mi South 11.5 mph - N/A   Clear
7:35 AM 70.9 °F - 57.2 °F 62% 29.94 in 10.0 mi South 10.4 mph - N/A   Clear
7:55 AM 72.3 °F - 57.7 °F 60% 29.94 in 10.0 mi South 9.2 mph - N/A   Clear
8:15 AM 73.6 °F - 57.7 °F 58% 29.94 in 10.0 mi South 11.5 mph - N/A   Clear
8:35 AM 75.0 °F - 57.4 °F 54% 29.93 in 10.0 mi South 12.7 mph 18.4 mph N/A   Clear
8:55 AM 76.1 °F - 57.2 °F 52% 29.93 in 10.0 mi South 11.5 mph 18.4 mph N/A   Scattered Clouds
9:15 AM 77.0 °F - 57.2 °F 50% 29.93 in 10.0 mi SSW 15.0 mph 20.7 mph N/A   Scattered Clouds
9:35 AM 77.0 °F - 56.5 °F 49% 29.93 in 10.0 mi South 15.0 mph 25.3 mph N/A   Mostly Cloudy
9:55 AM 78.8 °F - 57.0 °F 47% 29.92 in 10.0 mi South 15.0 mph 21.9 mph N/A   Mostly Cloudy
10:15 AM 78.6 °F - 57.7 °F 49% 29.91 in 10.0 mi South 16.1 mph 20.7 mph N/A   Scattered Clouds
10:35 AM 80.2 °F 80.7 °F 58.1 °F 47% 29.91 in 10.0 mi South 15.0 mph 19.6 mph N/A   Clear
10:55 AM 81.1 °F 81.2 °F 57.6 °F 44% 29.90 in 10.0 mi South 17.3 mph 23.0 mph N/A   Clear
11:15 AM 82.4 °F 82.5 °F 59.0 °F 45% 29.90 in 10.0 mi South 13.8 mph 20.7 mph N/A   Clear
11:35 AM 81.7 °F 81.8 °F 58.6 °F 45% 29.90 in 10.0 mi South 13.8 mph 23.0 mph N/A   Clear
11:55 AM 81.9 °F 81.9 °F 58.8 °F 45% 29.89 in 10.0 mi South 13.8 mph 24.2 mph N/A   Clear
12:15 PM 82.4 °F 82.3 °F 58.6 °F 44% 29.89 in 10.0 mi South 19.6 mph 25.3 mph N/A   Scattered Clouds
12:35 PM 83.7 °F 83.4 °F 58.8 °F 43% 29.89 in 10.0 mi South 18.4 mph 27.6 mph N/A   Scattered Clouds
12:55 PM 84.2 °F 83.8 °F 58.8 °F 42% 29.89 in 10.0 mi South 15.0 mph 26.5 mph N/A   Scattered Clouds
1:15 PM 84.2 °F 83.7 °F 58.5 °F 41% 29.88 in 10.0 mi South 18.4 mph 26.5 mph N/A   Clear
1:35 PM 84.2 °F 83.5 °F 57.7 °F 40% 29.88 in 10.0 mi South 17.3 mph 29.9 mph N/A   Clear
1:55 PM 85.6 °F 84.7 °F 57.2 °F 38% 29.88 in 10.0 mi SSW 15.0 mph 25.3 mph N/A   Clear
2:15 PM 85.3 °F 84.3 °F 56.8 °F 38% 29.88 in 10.0 mi South 13.8 mph 24.2 mph N/A   Clear
2:35 PM 83.8 °F 83.1 °F 57.2 °F 40% 29.88 in 10.0 mi SSW 15.0 mph 20.7 mph N/A   Clear
2:55 PM 84.4 °F 83.7 °F 57.4 °F 40% 29.88 in 10.0 mi South 11.5 mph 20.7 mph N/A   Scattered Clouds
3:15 PM 84.2 °F 83.3 °F 57.0 °F 39% 29.88 in 10.0 mi South 11.5 mph 23.0 mph N/A   Scattered Clouds
3:35 PM 84.2 °F 83.5 °F 57.6 °F 40% 29.87 in 10.0 mi South 12.7 mph 20.7 mph N/A   Scattered Clouds
3:55 PM 83.7 °F 83.3 °F 58.3 °F 42% 29.87 in 10.0 mi South 15.0 mph - N/A   Mostly Cloudy
4:15 PM 78.3 °F - 62.8 °F 59% 29.87 in 7.0 mi SW 11.5 mph 18.4 mph N/A Rain Heavy Rain
4:35 PM 76.5 °F - 63.9 °F 65% 29.87 in 10.0 mi SSW 13.8 mph 17.3 mph N/A   Overcast
4:55 PM 78.4 °F - 58.3 °F 50% 29.87 in 10.0 mi South 10.4 mph - N/A   Overcast
5:15 PM 81.1 °F 81.6 °F 59.5 °F 48% 29.86 in 10.0 mi South 10.4 mph - N/A   Mostly Cloudy
5:35 PM 82.8 °F 83.6 °F 62.2 °F 50% 29.85 in 10.0 mi SSE 12.7 mph 17.3 mph 0.01 in   Scattered Clouds
5:55 PM 82.4 °F 83.2 °F 62.2 °F 50% 29.85 in 10.0 mi SSE 11.5 mph - 0.01 in   Scattered Clouds
6:15 PM 82.6 °F 83.2 °F 61.9 °F 49% 29.84 in 10.0 mi South 12.7 mph 17.3 mph N/A   Scattered Clouds
6:35 PM 82.0 °F 82.7 °F 61.0 °F 49% 29.84 in 10.0 mi South 12.7 mph 18.4 mph N/A   Scattered Clouds
6:55 PM 83.1 °F 83.5 °F 61.0 °F 47% 29.84 in 10.0 mi South 11.5 mph 20.7 mph N/A   Mostly Cloudy
7:15 PM 81.9 °F 82.3 °F 60.3 °F 48% 29.85 in 10.0 mi South 12.7 mph 20.7 mph N/A   Scattered Clouds
7:35 PM 80.6 °F 81.4 °F 60.3 °F 50% 29.85 in 10.0 mi South 10.4 mph 16.1 mph N/A   Clear
7:55 PM 79.7 °F - 60.3 °F 51% 29.85 in 10.0 mi South 10.4 mph - N/A   Scattered Clouds
8:15 PM 79.2 °F - 59.9 °F 52% 29.86 in 10.0 mi South 11.5 mph - N/A   Scattered Clouds
8:35 PM 78.8 °F - 59.5 °F 52% 29.86 in 10.0 mi South 8.1 mph - N/A   Scattered Clouds
8:55 PM 78.3 °F - 59.2 °F 52% 29.86 in 10.0 mi South 9.2 mph - N/A   Mostly Cloudy
9:15 PM 77.9 °F - 59.0 °F 52% 29.86 in 10.0 mi South 6.9 mph - N/A   Overcast
9:35 PM 77.4 °F - 59.0 °F 53% 29.87 in 10.0 mi South 9.2 mph - N/A   Mostly Cloudy
9:55 PM 76.8 °F - 58.5 °F 53% 29.87 in 10.0 mi South 10.4 mph - N/A   Scattered Clouds
10:15 PM 76.1 °F - 58.6 °F 55% 29.88 in 10.0 mi South 10.4 mph - N/A   Clear
10:35 PM 76.1 °F - 58.5 °F 54% 29.88 in 10.0 mi South 11.5 mph - N/A   Clear
10:55 PM 75.4 °F - 58.5 °F 56% 29.88 in 10.0 mi South 8.1 mph - N/A   Clear
11:15 PM 75.0 °F - 58.5 °F 56% 29.88 in 10.0 mi South 10.4 mph - N/A   Clear
11:35 PM 74.7 °F - 58.5 °F 57% 29.89 in 10.0 mi South 9.2 mph - N/A   Clear
11:55 PM 74.7 °F - 58.5 °F 57% 29.89 in 10.0 mi South 9.2 mph - N/A   Clear